Weather in Amursk

Russia / Khabarovsk Krai     50°13′36″N   136°54′38″E
temp.,
°C
wind,
m/s
gust,
m/s
humid.,
%
clouds,
%
prec.,
mm/h
press.,
hPa
HPBL,
m
4 december, sat
sat401:00−19w1110097 0.1 101529
04:00−20n1110092 0.2 101623
07:00−21n12100100 0.1 101730
10:00−21n009972 0.1 101835
13:00−17ssw3491100 0.0 1018356
16:00−19ssw489433 0.1 1018258
19:00−23ssw4119862 0.0 1019194
22:00−21ssw6129599 0.0 1019402
5 december, sun
sun501:00−21ssw71495100 0.1 1018488
04:00−21ssw7159398 0.1 1018505
07:00−21ssw71590100 0.0 1018564
10:00−19ssw81690100 0.0 1018628
13:00−15ssw91787100 0.0 1017775
16:00−13ssw91787100 0.1 1017778
19:00−13ssw81686100 0.0 1017666
22:00−12ssw8188676 0.1 1017671
6 december, mon
mon601:00−13ssw8188950 0.0 1016534
04:00−14ssw61692100 0.0 1015391
07:00−12ssw6159499 0.1 1014431
10:00−11sw61693100 0.2 1013470
13:00−9sw7179298 0.1 1011622
16:00−7sw8168989 0.2 1011717
19:00−8sw612889 0.0 1013315
22:00−13ssw36929 0.0 101788
7 december, tue
tue701:00−14ssw389312 0.0 1019127
04:00−16ssw2496100 0.0 102272
07:00−13ssw3792100 0.0 1023216
10:00−12ssw4119113 0.0 1024356
13:00−10sw7149091 0.0 1023507
16:00−11ssw6129194 0.0 1025390
19:00−14ssw389657 0.0 1027121
22:00−18ssw2210070 0.0 102921
8 december, wed
wed801:00−19ssw22100100 0.0 102919
04:00−20ssw24100100 0.1 103053
07:00−20ssw2610097 0.0 103188
10:00−18ssw389997 0.1 1032151
13:00−12ssw5109284 0.0 1031343
16:00−11ssw5129261 0.0 1030355
19:00−9ssw51393100 0.0 1029410
22:00−8ssw6149162 0.0 1028457